TimeCDT,TemperatureF,Dew PointF,Humidity,Sea Level PressureIn,VisibilityMPH,Wind Direction,Wind SpeedMPH,Gust SpeedMPH,PrecipitationIn,Events,Conditions,WindDirDegrees,DateUTC
12:15 AM,73.9,41.0,30,30.20,10.0,SE,6.9,-,N/A,,Clear,140,2013-09-05 05:15:00
12:35 AM,72.3,41.0,32,30.20,10.0,Calm,Calm,-,N/A,,Clear,0,2013-09-05 05:35:00
12:55 AM,70.9,41.2,34,30.20,10.0,Calm,Calm,-,N/A,,Clear,0,2013-09-05 05:55:00
1:15 AM,70.2,41.2,35,30.20,10.0,Calm,Calm,-,N/A,,Clear,0,2013-09-05 06:15:00
1:35 AM,70.9,41.0,34,30.20,10.0,Calm,Calm,-,N/A,,Clear,0,2013-09-05 06:35:00
1:55 AM,70.7,41.0,34,30.20,10.0,Calm,Calm,-,N/A,,Clear,0,2013-09-05 06:55:00
2:15 AM,69.3,41.9,37,30.20,10.0,Calm,Calm,-,N/A,,Clear,0,2013-09-05 07:15:00
2:35 AM,68.9,41.9,37,30.19,10.0,Calm,Calm,-,N/A,,Clear,0,2013-09-05 07:35:00
2:55 AM,67.3,41.9,40,30.18,10.0,Calm,Calm,-,N/A,,Clear,0,2013-09-05 07:55:00
3:15 AM,67.1,41.9,40,30.19,10.0,Calm,Calm,-,N/A,,Clear,0,2013-09-05 08:15:00
3:35 AM,64.6,42.8,45,30.18,10.0,Calm,Calm,-,N/A,,Clear,0,2013-09-05 08:35:00
3:55 AM,65.3,42.8,44,30.18,10.0,Calm,Calm,-,N/A,,Clear,0,2013-09-05 08:55:00
4:15 AM,65.3,42.8,44,30.18,10.0,Calm,Calm,-,N/A,,Clear,0,2013-09-05 09:15:00
4:35 AM,64.2,43.5,47,30.18,10.0,Calm,Calm,-,N/A,,Clear,0,2013-09-05 09:35:00
4:55 AM,62.8,44.2,51,30.18,10.0,Calm,Calm,-,N/A,,Clear,0,2013-09-05 09:55:00
5:15 AM,63.0,44.4,51,30.18,10.0,Calm,Calm,-,N/A,,Clear,0,2013-09-05 10:15:00
5:35 AM,64.8,45.3,49,30.18,10.0,Calm,Calm,-,N/A,,Clear,0,2013-09-05 10:35:00
5:55 AM,64.4,46.6,52,30.18,10.0,Calm,Calm,-,N/A,,Clear,0,2013-09-05 10:55:00
6:15 AM,63.5,46.4,54,30.18,10.0,Calm,Calm,-,N/A,,Clear,0,2013-09-05 11:15:00
6:35 AM,62.6,46.4,55,30.18,10.0,Calm,Calm,-,N/A,,Clear,0,2013-09-05 11:35:00
6:55 AM,63.7,48.7,58,30.18,10.0,Calm,Calm,-,N/A,,Clear,0,2013-09-05 11:55:00
7:15 AM,65.8,51.8,60,30.20,10.0,Calm,Calm,-,N/A,,Clear,0,2013-09-05 12:15:00
7:35 AM,63.9,50.4,61,30.20,10.0,Calm,Calm,-,N/A,,Clear,0,2013-09-05 12:35:00
7:55 AM,64.6,50.9,61,30.21,10.0,Calm,Calm,-,N/A,,Clear,0,2013-09-05 12:55:00
8:15 AM,66.4,50.9,57,30.21,10.0,Calm,Calm,-,N/A,,Clear,0,2013-09-05 13:15:00
8:35 AM,68.7,51.8,55,30.22,10.0,Calm,Calm,-,N/A,,Clear,0,2013-09-05 13:35:00
8:55 AM,70.2,51.8,52,30.22,10.0,Calm,Calm,-,N/A,,Clear,0,2013-09-05 13:55:00
9:15 AM,72.5,52.5,49,30.23,10.0,Calm,Calm,-,N/A,,Clear,0,2013-09-05 14:15:00
9:35 AM,75.2,53.2,46,30.23,10.0,Calm,Calm,-,N/A,,Clear,0,2013-09-05 14:35:00
9:55 AM,76.8,54.0,45,30.24,10.0,Calm,Calm,-,N/A,,Clear,0,2013-09-05 14:55:00
10:15 AM,78.8,54.0,42,30.24,10.0,Calm,Calm,-,N/A,,Clear,0,2013-09-05 15:15:00
10:35 AM,81.1,53.6,38,30.24,10.0,Calm,Calm,-,N/A,,Clear,0,2013-09-05 15:35:00
10:55 AM,82.8,52.7,35,30.25,10.0,SSE,3.5,-,N/A,,Clear,150,2013-09-05 15:55:00
11:15 AM,84.7,54.9,36,30.25,10.0,SSW,4.6,-,N/A,,Clear,200,2013-09-05 16:15:00
11:35 AM,85.6,52.5,32,30.25,10.0,SSE,5.8,-,N/A,,Clear,160,2013-09-05 16:35:00
11:55 AM,86.7,52.9,31,30.25,10.0,South,6.9,-,N/A,,Clear,190,2013-09-05 16:55:00
12:15 PM,87.3,50.5,28,30.24,10.0,SSE,6.9,-,N/A,,Clear,160,2013-09-05 17:15:00
12:35 PM,89.4,45.3,22,30.24,10.0,East,8.1,-,N/A,,Clear,90,2013-09-05 17:35:00
12:55 PM,90.0,43.7,20,30.23,10.0,East,6.9,-,N/A,,Clear,90,2013-09-05 17:55:00
1:15 PM,90.0,42.4,19,30.23,10.0,East,11.5,18.4,N/A,,Clear,100,2013-09-05 18:15:00
1:35 PM,90.7,44.6,20,30.22,7.0,ESE,11.5,19.6,N/A,,Clear,120,2013-09-05 18:35:00
1:55 PM,91.8,37.0,15,30.21,5.0,East,13.8,19.6,N/A,,Haze,90,2013-09-05 18:55:00
2:15 PM,91.4,39.0,16,30.20,5.0,East,12.7,-,N/A,,Haze,90,2013-09-05 19:15:00
2:35 PM,92.7,39.6,16,30.20,7.0,ESE,11.5,19.6,N/A,,Clear,110,2013-09-05 19:35:00
2:55 PM,91.4,39.4,16,30.19,10.0,ESE,8.1,16.1,N/A,,Clear,120,2013-09-05 19:55:00
3:15 PM,92.5,40.3,16,30.19,7.0,South,5.8,-,N/A,,Clear,170,2013-09-05 20:15:00
3:35 PM,91.9,37.9,15,30.18,10.0,SE,4.6,-,N/A,,Clear,140,2013-09-05 20:35:00
3:55 PM,91.9,39.2,16,30.17,10.0,SE,8.1,-,N/A,,Clear,130,2013-09-05 20:55:00
4:15 PM,93.6,41.0,16,30.16,10.0,East,5.8,18.4,N/A,,Clear,100,2013-09-05 21:15:00
4:35 PM,92.8,41.4,17,30.15,7.0,South,3.5,-,N/A,,Clear,170,2013-09-05 21:35:00
4:55 PM,93.4,40.6,16,30.15,7.0,SE,6.9,17.3,N/A,,Clear,140,2013-09-05 21:55:00
5:15 PM,93.4,43.0,17,30.14,5.0,SE,8.1,-,N/A,,Haze,130,2013-09-05 22:15:00
5:35 PM,93.2,43.0,18,30.14,7.0,East,8.1,-,N/A,,Clear,100,2013-09-05 22:35:00
5:55 PM,91.8,43.7,19,30.14,5.0,Calm,Calm,-,N/A,,Haze,0,2013-09-05 22:55:00
6:15 PM,92.3,45.0,19,30.14,7.0,Calm,Calm,-,N/A,,Clear,0,2013-09-05 23:15:00
6:35 PM,92.3,47.7,22,30.13,7.0,East,8.1,-,N/A,,Clear,80,2013-09-05 23:35:00
6:55 PM,91.9,48.4,22,30.13,5.0,East,8.1,-,N/A,,Haze,90,2013-09-05 23:55:00
7:15 PM,90.7,49.6,24,30.13,5.0,East,6.9,-,N/A,,Haze,80,2013-09-06 00:15:00
7:35 PM,89.2,50.9,27,30.13,7.0,East,11.5,-,N/A,,Clear,100,2013-09-06 00:35:00
7:55 PM,87.8,51.1,28,30.14,7.0,East,8.1,-,N/A,,Clear,90,2013-09-06 00:55:00
8:15 PM,86.0,51.1,30,30.14,7.0,East,5.8,-,N/A,,Clear,100,2013-09-06 01:15:00
8:35 PM,84.7,50.9,31,30.15,7.0,East,4.6,-,N/A,,Clear,90,2013-09-06 01:35:00
8:55 PM,83.5,51.1,32,30.15,7.0,East,6.9,-,N/A,,Clear,100,2013-09-06 01:55:00
9:15 PM,82.8,51.6,34,30.16,10.0,East,5.8,-,N/A,,Clear,100,2013-09-06 02:15:00
9:35 PM,81.7,51.6,35,30.16,7.0,ESE,4.6,-,N/A,,Clear,120,2013-09-06 02:35:00
9:55 PM,83.3,53.8,36,30.18,10.0,SSE,9.2,-,N/A,,Clear,150,2013-09-06 02:55:00
10:15 PM,82.2,57.2,42,30.18,7.0,SSE,5.8,-,N/A,,Clear,150,2013-09-06 03:15:00
10:35 PM,81.0,57.6,45,30.19,10.0,SE,5.8,-,N/A,,Clear,140,2013-09-06 03:35:00
10:55 PM,79.7,57.9,47,30.20,10.0,SSE,5.8,-,N/A,,Clear,150,2013-09-06 03:55:00
11:15 PM,79.9,57.7,47,30.20,10.0,SE,8.1,-,N/A,,Clear,140,2013-09-06 04:15:00
11:35 PM,79.2,57.6,47,30.20,7.0,SSE,5.8,-,N/A,,Clear,160,2013-09-06 04:35:00
11:55 PM,78.1,57.7,49,30.20,7.0,South,4.6,-,N/A,,Clear,180,2013-09-06 04:55:00